Omak, WA

3:14 PM PDT on October 01, 2016 (GMT -0700)
Omak

Weather History for KOMK - February, 2014

Change the Weather History Date:

Sunday, February 9, 2014

  Actual Average Record
Temperature  
Mean Temperature 22 °F 31 °F  
Max Temperature 28 °F 38 °F 51 °F (1934)
Min Temperature 16 °F 23 °F -23 °F (1933)
Degree Days  
Heating Degree Days 43 34  
Month to date heating degree days 430 315  
Since 1 July heating degree days 4385 4248  
Cooling Degree Days 0 0  
Month to date cooling degree days 0 0  
Year to date cooling degree days 0 0  
Moisture  
Dew Point 14 °F    
Average Humidity 71    
Maximum Humidity 80    
Minimum Humidity 61    
Precipitation  
Precipitation T in 0.05 in 0.46 in (1961)
Month to date precipitation T 0.44  
Year to date precipitation 0.32 2.33  
Sea Level Pressure  
Sea Level Pressure 30.21 in    
Wind  
Wind Speed 7 mph (East)    
Max Wind Speed 20 mph    
Max Gust Speed 25 mph    
Visibility 8 miles    
Events Snow    
T = Trace of Precipitation, MM = Missing Value Source: NWS Daily Summary

Daily Weather History Graph

Daily Weather History Graph

Search for Another Location

Airport or City:

Trip Planner

Search our weather history database for the weather conditions in past years. The results will help you decide how hot, cold, wet, or windy it might be!

Date:

Astronomy

Feb. 09, 2014 Rise Set
Actual Time 7:15 AM PST 5:10 PM PST
Civil Twilight 6:42 AM PST 5:43 PM PST
Nautical Twilight 6:05 AM PST 6:20 PM PST
Astronomical Twilight 5:28 AM PST 6:56 PM PST
Moon 12:45 PM PST (2/9) 3:32 AM PST (2/9)
Length of Visible Light 11h 00m
Length of Day
9h 55m
Waxing Gibbous, 78% of the Moon is Illuminated
Feb 9
Waxing Gibbous
Feb 14
Full
Feb 22
Last Quarter
Mar 1
New
Mar 8
First Quarter

Hourly Weather History & Observations

Time (PST) Temp. Windchill Dew Point Humidity Pressure Visibility Wind Dir Wind Speed Gust Speed Precip Events Conditions
12:53 AM 18.0 °F 2.6 °F 7.0 °F 62% 30.11 in 10.0 mi North 17.3 mph - N/A   Overcast
1:53 AM 17.1 °F 2.5 °F 7.0 °F 65% 30.13 in 10.0 mi North 15.0 mph - N/A   Overcast
2:53 AM 17.1 °F 3.0 °F 8.1 °F 68% 30.13 in 4.0 mi NNW 13.8 mph - 0.00 in Snow Light Snow
3:53 AM 17.1 °F 3.0 °F 9.0 °F 71% 30.16 in 6.0 mi North 13.8 mph - 0.00 in Snow Light Snow
4:53 AM 16.0 °F 2.9 °F 10.0 °F 77% 30.18 in 6.0 mi North 11.5 mph - 0.00 in Snow Light Snow
5:41 AM 17.1 °F 5.8 °F 10.0 °F 74% 30.12 in 2.5 mi North 9.2 mph - 0.00 in Snow Light Snow
5:53 AM 16.0 °F 3.6 °F 10.0 °F 77% 30.20 in 2.0 mi North 10.4 mph - 0.00 in Snow Light Snow
6:09 AM 16.0 °F 4.4 °F 10.9 °F 81% 30.13 in 4.0 mi North 9.2 mph - 0.00 in Snow Light Snow
6:53 AM 16.0 °F 6.3 °F 10.9 °F 81% 30.20 in 5.0 mi North 6.9 mph - 0.00 in Snow Light Snow
7:53 AM 17.1 °F 8.7 °F 10.9 °F 77% 30.21 in 8.0 mi NNE 5.8 mph - 0.00 in   Overcast
8:53 AM 18.0 °F 12.7 °F 10.9 °F 74% 30.23 in 8.0 mi NE 3.5 mph - 0.00 in Snow Light Snow
9:53 AM 18.0 °F - 12.0 °F 78% 30.25 in 5.0 mi Calm Calm - 0.00 in Snow Light Snow
10:53 AM 19.0 °F - 12.9 °F 77% 30.26 in 3.0 mi Calm Calm - 0.00 in Snow Light Snow
11:53 AM 19.9 °F 14.9 °F 14.0 °F 78% 30.24 in 8.0 mi SSE 3.5 mph - 0.00 in   Overcast
12:53 PM 23.0 °F 17.0 °F 16.0 °F 74% 30.22 in 6.0 mi SSE 4.6 mph - 0.00 in   Haze
1:53 PM 25.0 °F 16.3 °F 17.1 °F 72% 30.22 in 10.0 mi SE 8.1 mph - N/A   Overcast
2:53 PM 27.0 °F 18.0 °F 17.1 °F 66% 30.22 in 10.0 mi South 9.2 mph - N/A   Overcast
3:53 PM 28.0 °F 20.0 °F 17.1 °F 63% 30.21 in 10.0 mi South 8.1 mph - N/A   Overcast
4:53 PM 26.1 °F 17.6 °F 16.0 °F 66% 30.21 in 10.0 mi SSW 8.1 mph - N/A   Mostly Cloudy
5:53 PM 24.1 °F 17.0 °F 16.0 °F 71% 30.22 in 10.0 mi SE 5.8 mph - N/A   Overcast
6:53 PM 24.1 °F 18.2 °F 17.1 °F 75% 30.23 in 10.0 mi ESE 4.6 mph - N/A   Overcast
7:53 PM 25.0 °F 20.7 °F 17.1 °F 72% 30.24 in 10.0 mi SE 3.5 mph - N/A   Overcast
8:53 PM 25.0 °F 20.7 °F 17.1 °F 72% 30.26 in 10.0 mi SE 3.5 mph - N/A   Overcast
9:38 PM 25.0 °F 20.7 °F 17.1 °F 72% 30.20 in 10.0 mi SE 3.5 mph - N/A   Overcast
9:53 PM 25.0 °F 20.7 °F 17.1 °F 72% 30.26 in 10.0 mi SE 3.5 mph - N/A   Overcast
10:34 PM 24.1 °F - 18.0 °F 77% 30.20 in 7.0 mi Calm Calm - 0.00 in Snow Light Snow
10:53 PM 25.0 °F - 18.0 °F 75% 30.27 in 10.0 mi Calm Calm - 0.00 in   Overcast
11:53 PM 24.1 °F - 18.0 °F 77% 30.27 in 10.0 mi Calm Calm - N/A   Overcast